{"data":{"norad_id":57363,"intl_designator":"2023-099AM","name":"STARLINK-6356","alt_names":[],"object_type":"PAYLOAD","status":"ACTIVE","operator":null,"country":"US","launch_date":"2023-07-16","launch_site_code":"AFETR","launch_vehicle":null,"mission":null,"orbit_class":"UNKNOWN","rcs_meters":null,"size_class":null,"mass_kg":null,"dimensions":null,"purposes":["comms"],"wikipedia_slug":null,"has_3d_model":false,"image_url":null,"decayed_at":null,"tle_current":{"epoch":"2026-05-24T11:20:29.169312Z","epoch_age_seconds":124209,"freshness":"FRESH","line1":"1 57363U 23099AM  26144.47255983  .00001191  00000+0  52801-4 0  9998","line2":"2 57363  43.0022 173.3286 0001840 294.2044  65.8615 15.27579853157797","mean_motion":15.27579853,"eccentricity":0.000184,"inclination_deg":43.0022,"raan_deg":173.3286,"arg_perigee_deg":294.2044,"mean_anomaly_deg":65.8615,"bstar":5.2801e-5,"rev_number":15779,"period_min":94.266757785002,"perigee_km":481.78707788791,"apogee_km":484.31199453323,"semimajor_km":6861.1865362106,"source":"CELESTRAK","updated_at":"2026-05-25T13:38:18.293254Z"}}}